Location: Colossi of Memnon
(25.7167°N, 32.6167°E)
Time: 04:40:52
(UTC+00:00)

Mugunghwa Rocket - Pass Details

Date: 05 March 2021
Orbit: 936 x 1372 km, 26.7° (Epoch: 10 April)

Event Time Altitude Azimuth Distance (km) Brightness Sun altitude
Exits shadow 01:53:20 51° 163° (SSE) 1,241 4.5 -31.3°
Drops below altitude 10° 01:58:34 10° 122° (ESE) 2,692 6.9 -30.1°
Sets 02:01:10 0° 118° (ESE) 3,607 7.7 -29.5°
